CARTOSAT-2D

Last updated on Mon Sep 14 2026 00:02:45 GMT+0000 (Coordinated Universal Time)

1 41948U 17008A 26256.61271574 .00003059 00000+0 14804-3 0 9992 2 41948 97.4021 314.2222 0003422 303.6842 56.4066 15.19316458531003
UTC large
Height (km)
Speed (km/s)
/
Latitude / Longitude
Inclination (degrees)
Orbital Period (minutes)
Azimuth
Elevation
Range (km)
Doppler Factor

Next 0 passes for location: London (51.5072 / 0.1276)

No passes found over London.
CARTOSAT-2D